Sonora, TX

11:00 AM CDT on October 01, 2016 (GMT -0500)
Sonora

Weather History for KSOA - April, 2014

Change the Weather History Date:

Wednesday, April 23, 2014

  Actual Average (KOZA) Record (KOZA)
Temperature  
Mean Temperature 76 °F -  
Max Temperature 89 °F 79 °F 91 °F (2014)
Min Temperature 64 °F 52 °F 50 °F (2013)
Cooling Degree Days 12    
Growing Degree Days 26 (Base 50)    
Moisture  
Dew Point 56 °F    
Average Humidity 51    
Maximum Humidity 88    
Minimum Humidity 29    
Precipitation  
Precipitation 0.00 in - - ()
Sea Level Pressure  
Sea Level Pressure 29.85 in    
Wind  
Wind Speed 10 mph (SSE)    
Max Wind Speed 22 mph    
Max Gust Speed 30 mph    
Visibility 10 miles    
Events      
Averages and records for this station are not official NWS values.
T = Trace of Precipitation, MM = Missing Value Source: NWS Daily Summary

Daily Weather History Graph

Daily Weather History Graph

Search for Another Location

Airport or City:

Trip Planner

Search our weather history database for the weather conditions in past years. The results will help you decide how hot, cold, wet, or windy it might be!

Date:

Astronomy

Apr. 23, 2014 Rise Set
Actual Time 7:06 AM CDT 8:15 PM CDT
Civil Twilight 6:41 AM CDT 8:40 PM CDT
Nautical Twilight 6:11 AM CDT 9:10 PM CDT
Astronomical Twilight 5:41 AM CDT 9:41 PM CDT
Moon 3:14 AM CDT (4/23) 2:49 PM CDT (4/23)
Length of Visible Light 13h 59m
Length of Day
13h 09m
Waning Crescent, 34% of the Moon is Illuminated
Apr 23
Waning Crescent
Apr 29
New
May 6
First Quarter
May 14
Full
May 21
Last Quarter

Hourly Weather History & Observations

Time (CDT) Temp. Heat Index Dew Point Humidity Pressure Visibility Wind Dir Wind Speed Gust Speed Precip Events Conditions
12:15 AM 71.6 °F - 50.0 °F 46% 29.97 in 10.0 mi ESE 6.9 mph - N/A   Clear
12:35 AM 71.6 °F - 50.0 °F 46% 29.96 in 10.0 mi SE 8.1 mph - N/A   Clear
12:55 AM 71.6 °F - 51.8 °F 50% 29.97 in 10.0 mi SE 8.1 mph - N/A   Clear
1:15 AM 69.8 °F - 51.8 °F 53% 29.96 in 10.0 mi SE 6.9 mph - N/A   Clear
1:35 AM 69.8 °F - 51.8 °F 53% 29.95 in 10.0 mi SE 8.1 mph - N/A   Clear
1:55 AM 69.8 °F - 51.8 °F 53% 29.94 in 10.0 mi SE 6.9 mph - N/A   Clear
2:15 AM 69.8 °F - 51.8 °F 53% 29.93 in 10.0 mi ESE 9.2 mph - N/A   Clear
2:35 AM 69.8 °F - 51.8 °F 53% 29.94 in 10.0 mi SE 9.2 mph - N/A   Clear
2:55 AM 68.0 °F - 51.8 °F 56% 29.94 in 10.0 mi SE 8.1 mph - N/A   Clear
3:15 AM 68.0 °F - 51.8 °F 56% 29.93 in 10.0 mi SSE 10.4 mph - N/A   Clear
3:35 AM 66.2 °F - 51.8 °F 60% 29.93 in 10.0 mi SE 9.2 mph - N/A   Clear
3:55 AM 66.2 °F - 51.8 °F 60% 29.93 in 10.0 mi SSE 6.9 mph - N/A   Clear
4:15 AM 66.2 °F - 53.6 °F 64% 29.91 in 10.0 mi SE 9.2 mph - N/A   Clear
4:35 AM 66.2 °F - 53.6 °F 64% 29.92 in 10.0 mi SSE 6.9 mph - N/A   Clear
4:55 AM 66.2 °F - 55.4 °F 68% 29.92 in 10.0 mi SSE 4.6 mph - N/A   Clear
5:15 AM 64.4 °F - 55.4 °F 73% 29.91 in 10.0 mi SSE 5.8 mph - N/A   Clear
5:35 AM 64.4 °F - 55.4 °F 73% 29.91 in 10.0 mi SSE 4.6 mph - N/A   Clear
5:55 AM 64.4 °F - 55.4 °F 73% 29.92 in 10.0 mi SSE 3.5 mph - N/A   Clear
6:15 AM 64.4 °F - 55.4 °F 73% 29.91 in 10.0 mi SSE 3.5 mph - N/A   Clear
6:35 AM 64.4 °F - 57.2 °F 77% 29.91 in 10.0 mi SSE 4.6 mph - N/A   Clear
6:55 AM 64.4 °F - 59.0 °F 83% 29.91 in 10.0 mi SSE 3.5 mph - N/A   Clear
7:15 AM 64.4 °F - 59.0 °F 83% 29.91 in 10.0 mi South 3.5 mph - N/A   Clear
7:35 AM 64.4 °F - 60.8 °F 88% 29.92 in 10.0 mi Calm Calm - N/A   Clear
7:55 AM 66.2 °F - 60.8 °F 83% 29.92 in 10.0 mi South 5.8 mph - N/A   Clear
8:15 AM 68.0 °F - 62.6 °F 83% 29.92 in 10.0 mi South 8.1 mph - N/A   Clear
8:35 AM 69.8 °F - 62.6 °F 78% 29.92 in 10.0 mi South 10.4 mph - N/A   Clear
8:55 AM 71.6 °F - 64.4 °F 78% 29.92 in 10.0 mi SSE 15.0 mph - N/A   Clear
9:15 AM 73.4 °F - 62.6 °F 69% 29.91 in 10.0 mi South 12.7 mph - N/A   Clear
9:35 AM 73.4 °F - 62.6 °F 69% 29.91 in 10.0 mi South 16.1 mph 20.7 mph N/A   Clear
9:55 AM 77.0 °F - 62.6 °F 61% 29.91 in 10.0 mi South 13.8 mph 19.6 mph N/A   Clear
10:15 AM 77.0 °F - 60.8 °F 57% 29.90 in 10.0 mi SSE 17.3 mph 23.0 mph N/A   Clear
10:35 AM 78.8 °F - 60.8 °F 54% 29.91 in 10.0 mi South 13.8 mph 25.3 mph N/A   Clear
10:55 AM 80.6 °F 81.5 °F 60.8 °F 51% 29.90 in 10.0 mi South 18.4 mph 25.3 mph N/A   Clear
11:15 AM 80.6 °F 80.8 °F 57.2 °F 45% 29.90 in 10.0 mi South 19.6 mph 26.5 mph N/A   Clear
11:35 AM 82.4 °F 82.5 °F 59.0 °F 45% 29.90 in 9.0 mi South 18.4 mph 29.9 mph N/A   Clear
11:55 AM 82.4 °F 82.0 °F 57.2 °F 42% 29.89 in 10.0 mi South 17.3 mph 24.2 mph N/A   Partly Cloudy
12:15 PM 84.2 °F 83.5 °F 57.2 °F 40% 29.88 in 10.0 mi South 17.3 mph 26.5 mph N/A   Clear
12:35 PM 84.2 °F 83.0 °F 55.4 °F 37% 29.87 in 10.0 mi South 19.6 mph 26.5 mph N/A   Clear
12:55 PM 86.0 °F 84.5 °F 55.4 °F 35% 29.86 in 10.0 mi South 18.4 mph 27.6 mph N/A   Clear
1:15 PM 86.0 °F 84.5 °F 55.4 °F 35% 29.84 in 10.0 mi South 18.4 mph 27.6 mph N/A   Clear
1:35 PM 87.8 °F 86.1 °F 55.4 °F 33% 29.83 in 10.0 mi South 12.7 mph 24.2 mph N/A   Clear
1:55 PM 87.8 °F 86.1 °F 55.4 °F 33% 29.82 in 10.0 mi South 18.4 mph 24.2 mph N/A   Clear
2:15 PM 87.8 °F 86.1 °F 55.4 °F 33% 29.81 in 10.0 mi South 16.1 mph 26.5 mph N/A   Clear
2:55 PM 89.6 °F 87.3 °F 53.6 °F 29% 29.79 in 10.0 mi South 17.3 mph 26.5 mph N/A   Clear
3:15 PM 89.6 °F 87.7 °F 55.4 °F 31% 29.78 in 10.0 mi South 17.3 mph 27.6 mph N/A   Clear
3:35 PM 89.6 °F 87.3 °F 53.6 °F 29% 29.77 in 10.0 mi South 11.5 mph 24.2 mph N/A   Clear
3:55 PM 89.6 °F 87.3 °F 53.6 °F 29% 29.76 in 10.0 mi SSE 16.1 mph 27.6 mph N/A   Clear
4:15 PM 89.6 °F 87.3 °F 53.6 °F 29% 29.75 in 10.0 mi South 16.1 mph 25.3 mph N/A   Clear
4:35 PM 89.6 °F 87.3 °F 53.6 °F 29% 29.74 in 10.0 mi South 18.4 mph 27.6 mph N/A   Clear
4:55 PM 89.6 °F 87.3 °F 53.6 °F 29% 29.75 in 10.0 mi SSE 18.4 mph 24.2 mph N/A   Clear
5:15 PM 89.6 °F 87.3 °F 53.6 °F 29% 29.74 in 10.0 mi South 17.3 mph 25.3 mph N/A   Clear
5:35 PM 89.6 °F 87.7 °F 55.4 °F 31% 29.75 in 10.0 mi South 21.9 mph 28.8 mph N/A   Clear
6:15 PM 87.8 °F 86.1 °F 55.4 °F 33% 29.73 in 10.0 mi SSE 19.6 mph 25.3 mph N/A   Clear
6:35 PM 84.2 °F 83.5 °F 57.2 °F 40% 29.72 in 10.0 mi SE 12.7 mph 17.3 mph N/A   Clear
6:55 PM 84.2 °F 83.0 °F 55.4 °F 37% 29.71 in 10.0 mi SSE 13.8 mph 18.4 mph N/A   Clear
7:15 PM 84.2 °F 83.0 °F 55.4 °F 37% 29.71 in 10.0 mi South 18.4 mph 23.0 mph N/A   Clear
7:35 PM 82.4 °F 81.7 °F 55.4 °F 39% 29.71 in 10.0 mi SSE 16.1 mph 23.0 mph N/A   Clear
7:55 PM 82.4 °F 82.0 °F 57.2 °F 42% 29.71 in 10.0 mi SSE 12.7 mph 24.2 mph N/A   Clear
8:15 PM 82.4 °F 81.7 °F 55.4 °F 39% 29.71 in 10.0 mi SSE 13.8 mph 24.2 mph N/A   Clear
8:35 PM 80.6 °F 80.5 °F 55.4 °F 42% 29.72 in 10.0 mi SSE 13.8 mph - N/A   Clear
8:55 PM 80.6 °F 80.8 °F 57.2 °F 45% 29.72 in 10.0 mi SSE 15.0 mph 21.9 mph N/A   Clear
9:15 PM 80.6 °F 80.5 °F 55.4 °F 42% 29.73 in 10.0 mi South 11.5 mph - N/A   Clear
9:55 PM 78.8 °F - 55.4 °F 44% 29.74 in 10.0 mi South 10.4 mph - N/A   Clear
10:15 PM 77.0 °F - 55.4 °F 47% 29.74 in 10.0 mi Calm Calm - N/A   Clear
10:35 PM 75.2 °F - 55.4 °F 50% 29.75 in 10.0 mi South 8.1 mph - N/A   Clear
10:55 PM 75.2 °F - 57.2 °F 53% 29.76 in 10.0 mi South 6.9 mph - N/A   Clear
11:35 PM 75.2 °F - 57.2 °F 53% 29.76 in 10.0 mi South 9.2 mph - N/A   Clear